Flag for U.S.A. Weather past 2 weeks in Downey, California, U.S.A.

Now
65 °F

Sunny.


Feels Like: 65 °F
Forecast: 55 / 74 °F
Wind: 9 mph from South

Location: Long Beach Airport

Current Time: Mar 31, 2015 at 6:56:22 PM

Latest Report: Mar 31, 2015 at 5:53 PM


Visibility: 10 mi

Pressure: 29.94 "Hg

Humidity: 70%

Dew point: 55 °F

Location of DowneyLocation

Historic Weather in Downey — Graph

°F

Downey temperature yesterday

Maximum temperature yesterday: 76 °F (at 2:53 PM)
Minimum temperature yesterday: 58 °F (at 11:53 PM)
Average temperature yesterday: 65 °F

Past Weeks' High & Low Weather Summary

 TemperatureHumidityPressure
High93 °F (Mar 26, 12:53 PM)93% (Mar 28, 3:53 AM)30.19 "Hg (Mar 28, 3:53 AM)
Low57 °F (Mar 24, 4:53 AM)10% (Mar 26, 12:53 PM)29.86 "Hg (Mar 16, 5:53 PM)
Average67 °F67%30.03 "Hg
* Reported Mar 16 4:53 PM — Mar 31 4:53 PM, Downey, Weather by CustomWeather, © 2015

Note: Actual official high and low records may vary slightly from our data, if they occured in-between our weather recording intervals... More about our weather records

Advertising

Downey weather history for previous 24 hours

 ConditionsComfort  
Time TempWeatherWind HumidityBarometerVisibility
4:53 PM
Tue, Mar 31
67 °FSunny.8 mph66%29.95 "Hg10 mi
3:53 PM68 °FSunny.7 mph63%29.96 "Hg10 mi
2:53 PM69 °FSunny.8 mph61%29.97 "Hg10 mi
1:53 PM68 °FSunny.9 mph63%30.00 "Hg10 mi
12:53 PM68 °FSunny.10 mph63%30.01 "Hg10 mi
11:53 AM68 °FSunny.6 mph61%30.02 "Hg10 mi
10:53 AM66 °FSunny.3 mph65%30.03 "Hg10 mi
9:53 AM63 °FScattered clouds.3 mph73%30.02 "Hg7 mi
8:53 AM61 °FOvercast.5 mph78%30.01 "Hg6 mi
7:53 AM60 °FOvercast.3 mph80%30.00 "Hg5 mi
6:53 AM59 °FOvercast.3 mph84%29.99 "Hg6 mi
5:53 AM58 °FFog.5 mph87%29.98 "Hg5 mi
4:53 AM58 °FFog.No wind90%29.97 "Hg4 mi
3:53 AM59 °FFog.5 mph90%29.98 "Hg5 mi
2:53 AM59 °FFog.No wind90%29.99 "Hg4 mi
1:53 AM57 °FFog.No wind90%30.00 "Hg6 mi
12:53 AM58 °FClear.3 mph87%30.01 "Hg7 mi
11:53 PM
Mon, Mar 30
58 °FClear.5 mph87%30.01 "Hg7 mi
10:53 PM59 °FClear.6 mph87%30.01 "Hg8 mi
9:53 PM60 °FClear.6 mph83%30.00 "Hg8 mi
8:53 PM62 °FClear.7 mph80%29.98 "Hg10 mi
7:53 PM64 °FSunny.8 mph75%29.96 "Hg10 mi
6:53 PM67 °FSunny.6 mph68%29.95 "Hg10 mi
Weather by CustomWeather, © 2015

See weather overviewHow to use our weather pages